Home > Products > Valid Products > RWR

000
ASUS41 KALY 301310
RWRALY

NEW YORK STATE HOURLY WEATHER ROUNDUP
NATIONAL WEATHER SERVICE ALBANY NY
900 AM EDT MON MAY 30 2016

NOTE: "FAIR" INDICATES FEW OR NO CLOUDS BELOW 12,000 FEET WITH NO
SIGNIFICANT WEATHER AND/OR NO OBSTRUCTIONS TO VISIBILITY.

NYZ032-033-038>043-046>054-057>066-NYZ062>081-082-084-301400-
EAST


CITY           SKY/WX    TMP DP  RH WIND       PRES   REMARKS
ALBANY         PTSUNNY   68  62  81 S10       29.98S
GLENS FALLS    CLOUDY    70  63  78 S12       29.96S
POUGHKEEPSIE   CLOUDY    68  63  84 CALM      29.99F
NEWBURGH       CLOUDY    66  66 100 W7        30.02S FOG
MONTGOMERY     CLOUDY    67  64  90 W3        30.01S
WHITE PLAINS   FOG       68  66  93 NW6       30.01R VSB 1
ISLIP          LGT RAIN  67  66  97 SW13      30.01R FOG
NEW YORK CITY  CLOUDY    70  65  84 W7        30.00R
CENTRAL PARK   CLOUDY    69  67  93 VRB3      30.04R FOG
$$

NYZ005>009-017-018-044>046-055-056-301400-
CENTRAL


CITY           SKY/WX    TMP DP  RH WIND       PRES   REMARKS
FULTON         SUNNY     76  64  66 SW8       29.94S
SYRACUSE       MOSUNNY   74  62  66 SW10      29.94S
ROME           MOSUNNY   72  63  73 S6        29.97S
ELMIRA         SUNNY     71  61  70 SW7       29.99F
BINGHAMTON     MOSUNNY   67  59  75 SW9       30.02S
MONTICELLO     CLOUDY    63  63 100 NW6       30.05F
$$

NYZ026>034-041>043-087-301400-
NORTH


CITY           SKY/WX    TMP DP  RH WIND       PRES   REMARKS
WATERTOWN      MOSUNNY   74  59  59 SW17G26   29.91S
FORT DRUM      NOT AVBL
MASSENA        SUNNY     76  61  59 SW16      29.87F
SARANAC LAKE   MOSUNNY   68  60  75 SW9       29.93F
PLATTSBURGH    CLOUDY    67  65  93 SE6       29.89S
$$

NYZ001>004-010>016-019>021-085-301400-
WEST


CITY           SKY/WX    TMP DP  RH WIND       PRES   REMARKS
NIAGARA FALLS  MOSUNNY   73  60  63 W9        29.95S
BUFFALO        MOSUNNY   69  60  73 W13       29.97S
DUNKIRK        LGT RAIN  71  61  70 SW10      29.99S
WELLSVILLE     SUNNY     68  60  75 W8        30.05S
ROCHESTER      MOSUNNY   73  63  70 W10       29.95S
PENN YAN       SUNNY     71  61  70 S8        29.98S
$$

             KEY
       WCI = WIND CHILL INDEX
       VSB = VISIBILITY
       HX  = HEAT INDEX
$$






000
ASUS41 KALY 301210
RWRALY

NEW YORK STATE HOURLY WEATHER ROUNDUP
NATIONAL WEATHER SERVICE ALBANY NY
800 AM EDT MON MAY 30 2016

NOTE: "FAIR" INDICATES FEW OR NO CLOUDS BELOW 12,000 FEET WITH NO
SIGNIFICANT WEATHER AND/OR NO OBSTRUCTIONS TO VISIBILITY.

NYZ032-033-038>043-046>054-057>066-NYZ062>081-082-084-301300-
EAST


CITY           SKY/WX    TMP DP  RH WIND       PRES   REMARKS
ALBANY         CLOUDY    67  62  84 S9        29.98R
GLENS FALLS    CLOUDY    69  65  86 S8        29.96R
POUGHKEEPSIE   LGT RAIN  66  62  87 CALM      30.00S FOG
NEWBURGH       LGT RAIN  64  64 100 CALM      30.02S FOG
MONTGOMERY     LGT RAIN  65  63  93 SW3       30.01S
WHITE PLAINS   CLOUDY    68  67  96 CALM      29.99S FOG
ISLIP          FOG       67  66  97 SW12      30.00S VSB 1/8
NEW YORK CITY  CLOUDY    71  71 100 SW5       29.98R
CENTRAL PARK   CLOUDY    68  66  93 VRB3      30.02R FOG
$$

NYZ005>009-017-018-044>046-055-056-301300-
CENTRAL


CITY           SKY/WX    TMP DP  RH WIND       PRES   REMARKS
FULTON         SUNNY     73  64  73 S8        29.94S
SYRACUSE       PTSUNNY   71  63  75 S9        29.94R
ROME           PTSUNNY   69  65  86 SE3       29.97R
ELMIRA         CLOUDY    64  62  93 SW6       30.00R FOG
BINGHAMTON     PTSUNNY   65  57  75 S7        30.02S
MONTICELLO     CLOUDY    61  59  94 CALM      30.06R
$$

NYZ026>034-041>043-087-301300-
NORTH


CITY           SKY/WX    TMP DP  RH WIND       PRES   REMARKS
WATERTOWN      SUNNY     72  61  68 SW15G23   29.91R
FORT DRUM      NOT AVBL
MASSENA        PTSUNNY   71  62  73 SW9       29.88S
SARANAC LAKE   MOSUNNY   65  60  84 SW7       29.94S
PLATTSBURGH    CLOUDY    66  64  93 SE3       29.89S
$$

NYZ001>004-010>016-019>021-085-301300-
WEST


CITY           SKY/WX    TMP DP  RH WIND       PRES   REMARKS
NIAGARA FALLS  MOSUNNY   70  60  70 SW9       29.95S
BUFFALO        MOSUNNY   67  59  75 SW16      29.97R
DUNKIRK        LGT RAIN  69  60  73 SW9       29.99S
WELLSVILLE     SUNNY     65  59  81 W12       30.05R
ROCHESTER      MOSUNNY   69  61  75 SW10      29.95R
PENN YAN       SUNNY     68  60  75 S10       29.98S
$$

             KEY
       WCI = WIND CHILL INDEX
       VSB = VISIBILITY
       HX  = HEAT INDEX
$$






000
ASUS41 KALY 301110
RWRALY

NEW YORK STATE HOURLY WEATHER ROUNDUP
NATIONAL WEATHER SERVICE ALBANY NY
700 AM EDT MON MAY 30 2016

NOTE: "FAIR" INDICATES FEW OR NO CLOUDS BELOW 12,000 FEET WITH NO
SIGNIFICANT WEATHER AND/OR NO OBSTRUCTIONS TO VISIBILITY.

NYZ032-033-038>043-046>054-057>066-NYZ062>081-082-084-301200-
EAST


CITY           SKY/WX    TMP DP  RH WIND       PRES   REMARKS
ALBANY         LGT RAIN  68  64  87 S9        29.97S
GLENS FALLS    CLOUDY    68  65  90 SW6       29.95S
POUGHKEEPSIE   LGT RAIN  65  62  90 CALM      30.00S FOG
NEWBURGH       LGT RAIN  64  64 100 CALM      30.02F FOG
MONTGOMERY     RAIN      64  63  96 SW3       30.01F FOG
WHITE PLAINS   LGT RAIN  68  67  96 CALM      29.99S FOG
ISLIP          FOG       67  66  97 SW12      30.00F VSB 1/2
NEW YORK CITY  LGT RAIN  72  72 100 CALM      29.97F
CENTRAL PARK   LGT RAIN  70  68  93 CALM      30.01F FOG
$$

NYZ005>009-017-018-044>046-055-056-301200-
CENTRAL


CITY           SKY/WX    TMP DP  RH WIND       PRES   REMARKS
FULTON         CLOUDY    68  64  87 S7        29.94R
SYRACUSE       PTSUNNY   67  63  87 S7        29.93S
ROME           MOSUNNY   67  65  93 E5        29.96S
ELMIRA         FOG       62  60  93 SW3       29.99S VSB 1/4
BINGHAMTON     CLOUDY    61  54  77 S6        30.02R
MONTICELLO     PTSUNNY   59  57  94 CALM      30.04F
$$

NYZ026>034-041>043-087-301200-
NORTH


CITY           SKY/WX    TMP DP  RH WIND       PRES   REMARKS
WATERTOWN      CLOUDY    70  61  73 S12       29.90S
FORT DRUM      NOT AVBL
MASSENA        PTSUNNY   70  62  76 SW7       29.88S
SARANAC LAKE   CLOUDY    64  61  90 SW6       29.94S
PLATTSBURGH    CLOUDY    66  65  96 CALM      29.89S FOG
$$

NYZ001>004-010>016-019>021-085-301200-
WEST


CITY           SKY/WX    TMP DP  RH WIND       PRES   REMARKS
NIAGARA FALLS  SUNNY     67  58  72 SW12      29.95R
BUFFALO        CLOUDY    66  58  75 SW14      29.96R
DUNKIRK        LGT RAIN  64  60  87 SW6       29.99R
JAMESTOWN      SUNNY     61  57  88 SW8       30.02S
WELLSVILLE     SUNNY     62  58  86 SW8       30.04R
ROCHESTER      MOSUNNY   66  61  84 SW8       29.94R
PENN YAN       SUNNY     65  61  87 S9        29.98R
$$

             KEY
       WCI = WIND CHILL INDEX
       VSB = VISIBILITY
       HX  = HEAT INDEX
$$






000
ASUS41 KALY 300910
RWRALY

NEW YORK STATE HOURLY WEATHER ROUNDUP
NATIONAL WEATHER SERVICE ALBANY NY
500 AM EDT MON MAY 30 2016

NOTE: "FAIR" INDICATES FEW OR NO CLOUDS BELOW 12,000 FEET WITH NO
SIGNIFICANT WEATHER AND/OR NO OBSTRUCTIONS TO VISIBILITY.

NYZ032-033-038>043-046>054-057>066-NYZ062>081-082-084-301000-
EAST


CITY           SKY/WX    TMP DP  RH WIND       PRES   REMARKS
ALBANY         CLOUDY    69  66  90 S10       29.97F
GLENS FALLS    CLOUDY    68  65  90 S3        29.97S
POUGHKEEPSIE   CLOUDY    69  64  84 S3        29.98F
NEWBURGH       DRIZZLE   64  63  94 CALM      30.01S
MONTGOMERY     LGT RAIN  66  63  90 SW5       30.01R
WHITE PLAINS   RAIN      68  67  96 S5        30.00S
ISLIP          CLOUDY    68  67  96 SW7       30.00S
NEW YORK CITY  HVY RAIN  70  70 100 S7        29.98S FOG
CENTRAL PARK   RAIN      70  68  93 CALM      30.02S FOG
$$

NYZ005>009-017-018-044>046-055-056-301000-
CENTRAL


CITY           SKY/WX    TMP DP  RH WIND       PRES   REMARKS
FULTON         PTCLDY    67  63  87 S8        29.92F
SYRACUSE       MOCLDY    66  62  87 S5        29.93R
ROME           CLOUDY    64  64 100 E6        29.96R
ELMIRA         FOG       60  59  96 CALM      29.98S VSB 1/4
BINGHAMTON     CLOUDY    62  55  77 S5        30.01S
MONTICELLO     CLOUDY    61  61 100 CALM      30.05S
$$

NYZ026>034-041>043-087-301000-
NORTH


CITY           SKY/WX    TMP DP  RH WIND       PRES   REMARKS
WATERTOWN      CLOUDY    64  61  90 CALM      29.90S
FORT DRUM      NOT AVBL
MASSENA        MOCLDY    70  61  73 S5        29.88S
SARANAC LAKE   CLOUDY    62  60  93 CALM      29.94F
PLATTSBURGH    LGT RAIN  66  65  96 CALM      29.90F
$$

NYZ001>004-010>016-019>021-085-301000-
WEST


CITY           SKY/WX    TMP DP  RH WIND       PRES   REMARKS
NIAGARA FALLS  CLEAR     68  57  68 SW10      29.92R
BUFFALO        PTCLDY    67  59  75 SW8       29.93R
DUNKIRK        LGT RAIN  64  59  83 SW7       29.97R
JAMESTOWN      PTCLDY    63  55  77 SW8       30.01R
WELLSVILLE     PTCLDY    61  56  83 SW10G16   30.03S
ROCHESTER      CLOUDY    65  62  90 SW8       29.93R
PENN YAN       PTCLDY    64  62  93 SW8       29.96F
$$

             KEY
       WCI = WIND CHILL INDEX
       VSB = VISIBILITY
       HX  = HEAT INDEX
$$






000
ASUS41 KALY 300710
RWRALY

NEW YORK STATE HOURLY WEATHER ROUNDUP
NATIONAL WEATHER SERVICE ALBANY NY
300 AM EDT MON MAY 30 2016

NOTE: "FAIR" INDICATES FEW OR NO CLOUDS BELOW 12,000 FEET WITH NO
SIGNIFICANT WEATHER AND/OR NO OBSTRUCTIONS TO VISIBILITY.

NYZ032-033-038>043-046>054-057>066-NYZ062>081-082-084-300800-
EAST


CITY           SKY/WX    TMP DP  RH WIND       PRES   REMARKS
ALBANY         LGT RAIN  69  64  84 S8        29.98S
GLENS FALLS    MOCLDY    68  66  93 CALM      29.97F
POUGHKEEPSIE   LGT RAIN  72  68  87 S3        30.00F
NEWBURGH       LGT RAIN  68  66  94 W6        30.03F
MONTGOMERY     LGT RAIN  67  65  93 SW3       30.02S
WHITE PLAINS   RAIN      68  67  96 CALM      30.01F FOG
ISLIP          CLOUDY    68  66  93 S6        30.02F
NEW YORK CITY  RAIN      70  70 100 S5        30.00F
CENTRAL PARK   RAIN      70  69  97 CALM      30.04F FOG
$$

NYZ005>009-017-018-044>046-055-056-300800-
CENTRAL


CITY           SKY/WX    TMP DP  RH WIND       PRES   REMARKS
FULTON         CLOUDY    67  63  87 S3        29.93F
SYRACUSE       CLOUDY    65  64  97 SE9       29.92F
ROME           CLOUDY    66  66 100 E8        29.95F
ELMIRA         CLOUDY    65  62  90 CALM      29.98F FOG
BINGHAMTON     MOCLDY    64  63  96 SE5       30.01F
MONTICELLO     CLOUDY    64  61  88 S7        30.07F
$$

NYZ026>034-041>043-087-300800-
NORTH


CITY           SKY/WX    TMP DP  RH WIND       PRES   REMARKS
WATERTOWN      CLOUDY    70  60  70 S7        29.89F
FORT DRUM      NOT AVBL
MASSENA        LGT RAIN  71  62  73 S8        29.89F
SARANAC LAKE   LGT RAIN  65  61  87 SW8       29.98R
PLATTSBURGH    LGT RAIN  67  66  97 S5        29.92S
$$

NYZ001>004-010>016-019>021-085-300800-
WEST


CITY           SKY/WX    TMP DP  RH WIND       PRES   REMARKS
NIAGARA FALLS  CLEAR     69  57  65 SW12      29.91F
BUFFALO        PTCLDY    68  55  63 SW8       29.93S
DUNKIRK        LGT RAIN  69  57  65 S12       29.94S
JAMESTOWN      PTCLDY    61  55  82 S9        30.00S
WELLSVILLE     MOCLDY    63  56  78 S9        30.03F
ROCHESTER      CLOUDY    64  62  93 CALM      29.93F
PENN YAN       CLOUDY    65  62  90 SW8       29.98F
$$

             KEY
       WCI = WIND CHILL INDEX
       VSB = VISIBILITY
       HX  = HEAT INDEX
$$






000
ASUS41 KALY 300610
RWRALY

NEW YORK STATE HOURLY WEATHER ROUNDUP
NATIONAL WEATHER SERVICE ALBANY NY
200 AM EDT MON MAY 30 2016

NOTE: "FAIR" INDICATES FEW OR NO CLOUDS BELOW 12,000 FEET WITH NO
SIGNIFICANT WEATHER AND/OR NO OBSTRUCTIONS TO VISIBILITY.

NYZ032-033-038>043-046>054-057>066-NYZ062>081-082-084-300700-
EAST


CITY           SKY/WX    TMP DP  RH WIND       PRES   REMARKS
ALBANY         LGT RAIN  71  62  73 S12       29.98F
GLENS FALLS    CLOUDY    69  66  90 W3        29.99S
POUGHKEEPSIE   CLOUDY    73  67  81 S3        30.01F
NEWBURGH       LGT RAIN  70  70 100 SW6       30.04F
MONTGOMERY     RAIN      70  68  93 W3        30.02F FOG
WHITE PLAINS   RAIN      68  67  96 CALM      30.03F FOG
ISLIP          CLOUDY    67  66  97 S7        30.04F
NEW YORK CITY  HVY RAIN  70  70 100 CALM      30.01F FOG
CENTRAL PARK   HVY RAIN  69  68  96 CALM      30.06F VSB 3/4
$$

NYZ005>009-017-018-044>046-055-056-300700-
CENTRAL


CITY           SKY/WX    TMP DP  RH WIND       PRES   REMARKS
FULTON         LGT RAIN  68  64  87 SE3       29.94F
SYRACUSE       CLOUDY    66  64  93 SE5       29.94F
ROME           CLOUDY    66  66 100 E5        29.98F
ELMIRA         CLOUDY    66  62  87 CALM      30.00F
BINGHAMTON     CLOUDY    65  64  97 CALM      30.04F
MONTICELLO     MOCLDY    64  63  94 CALM      30.08F
$$

NYZ026>034-041>043-087-300700-
NORTH


CITY           SKY/WX    TMP DP  RH WIND       PRES   REMARKS
WATERTOWN      CLOUDY    70  60  70 S6        29.92F
FORT DRUM      NOT AVBL
MASSENA        LGT RAIN  71  62  73 SW7       29.90F
SARANAC LAKE   MOCLDY    63  61  93 SW6       29.97F
PLATTSBURGH    CLOUDY    67  66  97 S5        29.92F
$$

NYZ001>004-010>016-019>021-085-300700-
WEST


CITY           SKY/WX    TMP DP  RH WIND       PRES   REMARKS
NIAGARA FALLS  PTCLDY    69  57  65 SW12      29.92F
BUFFALO        PTCLDY    69  55  60 S7        29.93F
DUNKIRK        LGT RAIN  70  58  65 S13       29.94F
JAMESTOWN      PTCLDY    61  54  77 S8        30.00F
WELLSVILLE     CLOUDY    64  57  78 S6        30.05F
ROCHESTER      CLOUDY    64  62  93 SW5       29.95F
PENN YAN       MOCLDY    65  63  93 SW7       29.99F
$$

             KEY
       WCI = WIND CHILL INDEX
       VSB = VISIBILITY
       HX  = HEAT INDEX
$$






000
ASUS41 KALY 300510
RWRALY

NEW YORK STATE HOURLY WEATHER ROUNDUP
NATIONAL WEATHER SERVICE ALBANY NY
100 AM EDT MON MAY 30 2016

NOTE: "FAIR" INDICATES FEW OR NO CLOUDS BELOW 12,000 FEET WITH NO
SIGNIFICANT WEATHER AND/OR NO OBSTRUCTIONS TO VISIBILITY.

NYZ032-033-038>043-046>054-057>066-NYZ062>081-082-084-300600-
EAST


CITY           SKY/WX    TMP DP  RH WIND       PRES   REMARKS
ALBANY         CLOUDY    71  66  84 S7        29.99F
GLENS FALLS    PTCLDY    68  65  90 W3        29.99F
POUGHKEEPSIE   CLOUDY    74  67  78 SE6       30.02F
NEWBURGH       LGT RAIN  72  70  94 VRB5      30.05S
MONTGOMERY     LGT RAIN  71  68  90 CALM      30.03F
WHITE PLAINS   LGT RAIN  68  66  93 SE6       30.05F FOG
ISLIP          LGT RAIN  67  66  97 S3        30.06F
NEW YORK CITY  LGT RAIN  71  71 100 S7        30.04F
CENTRAL PARK   CLOUDY    71  66  84 CALM      30.07F
$$

NYZ005>009-017-018-044>046-055-056-300600-
CENTRAL


CITY           SKY/WX    TMP DP  RH WIND       PRES   REMARKS
FULTON         LGT RAIN  68  64  87 VRB7      29.97F
SYRACUSE       LGT RAIN  67  63  87 SE9       29.98F
ROME           LGT RAIN  67  67 100 E7        30.02F FOG
ELMIRA         CLOUDY    66  63  90 CALM      30.03S
BINGHAMTON     LGT RAIN  66  64  93 NW5       30.06S
MONTICELLO     CLOUDY    66  63  88 S3        30.09S
$$

NYZ026>034-041>043-087-300600-
NORTH


CITY           SKY/WX    TMP DP  RH WIND       PRES   REMARKS
WATERTOWN      CLOUDY    71  60  68 S8        29.94F
FORT DRUM      NOT AVBL
MASSENA        MOCLDY    72  62  71 SW7       29.91F
SARANAC LAKE   CLOUDY    64  62  93 SW7       29.99F
PLATTSBURGH    CLOUDY    67  66  97 S3        29.94F
$$

NYZ001>004-010>016-019>021-085-300600-
WEST


CITY           SKY/WX    TMP DP  RH WIND       PRES   REMARKS
NIAGARA FALLS  PTCLDY    69  59  70 S8        29.93F
BUFFALO        MOCLDY    69  55  60 S7        29.95F
DUNKIRK        LGT RAIN  72  55  55 SW14G23   29.96F
JAMESTOWN      MOCLDY    64  54  68 S12       30.03S
WELLSVILLE     MOCLDY    64  57  78 S6        30.07F
ROCHESTER      CLOUDY    66  63  90 SW7       29.97F
PENN YAN       CLOUDY    66  62  87 S8        30.00F
$$

             KEY
       WCI = WIND CHILL INDEX
       VSB = VISIBILITY
       HX  = HEAT INDEX
$$






000
ASUS41 KALY 291910
RWRALY

NEW YORK STATE HOURLY WEATHER ROUNDUP
NATIONAL WEATHER SERVICE ALBANY NY
300 PM EDT SUN MAY 29 2016

NOTE: "FAIR" INDICATES FEW OR NO CLOUDS BELOW 12,000 FEET WITH NO
SIGNIFICANT WEATHER AND/OR NO OBSTRUCTIONS TO VISIBILITY.

NYZ032-033-038>043-046>054-057>066-NYZ062>081-082-084-292000-
EAST


CITY           SKY/WX    TMP DP  RH WIND       PRES   REMARKS
ALBANY         CLOUDY    86  68  54 S13       30.02F
GLENS FALLS    CLOUDY    86  66  51 SW5       30.01F
POUGHKEEPSIE   MOSUNNY   91  65  41 S9G16     30.04F HX  93
NEWBURGH       MOSUNNY   88  70  55 SW12      30.09S HX  92
MONTGOMERY     MOSUNNY   88  68  51 S10       30.05F HX  91
WHITE PLAINS   SUNNY     83  61  47 SE10G17   30.10F
ISLIP          PTSUNNY   77  65  66 S13       30.13F
NEW YORK CITY  PTSUNNY   84  56  38 SE17      30.10F
CENTRAL PARK   SUNNY     82  54  37 VRB7      30.13S
$$

NYZ005>009-017-018-044>046-055-056-292000-
CENTRAL


CITY           SKY/WX    TMP DP  RH WIND       PRES   REMARKS
FULTON         CLOUDY    83  70  64 NW7       30.02F
SYRACUSE       TSTM      70  69  97 N9G25     30.05R VSB 1/2
ROME           CLOUDY    73  69  87 SW5       30.04F
ELMIRA         CLOUDY    91  61  36 SW14G20   30.02S HX  91
BINGHAMTON     MOSUNNY   84  65  52 VRB7      30.08F
MONTICELLO     MOSUNNY   86  66  51 S13G18    30.11F
$$

NYZ026>034-041>043-087-292000-
NORTH


CITY           SKY/WX    TMP DP  RH WIND       PRES   REMARKS
WATERTOWN      CLOUDY    81  66  60 W13       29.99F
FORT DRUM      NOT AVBL
MASSENA        MOSUNNY   85  65  51 NE7       29.98F
SARANAC LAKE   PTSUNNY   76  62  62 MISG      30.05F THUNDER
PLATTSBURGH    TSTM      72  67  84 S16G28    30.04R
$$

NYZ001>004-010>016-019>021-085-292000-
WEST


CITY           SKY/WX    TMP DP  RH WIND       PRES   REMARKS
NIAGARA FALLS  CLOUDY    85  63  47 SW10      30.01F
BUFFALO        PTSUNNY   85  64  49 W15G21    30.02F
DUNKIRK        PTSUNNY   80  64  58 W13       30.04F
WELLSVILLE     MOSUNNY   74  64  71 VRB6      30.13F
ROCHESTER      CLOUDY    87  66  49 CALM      30.01F
PENN YAN       HVY RAIN  68  63  84 VRB6      30.11R VSB 1/2
$$

             KEY
       WCI = WIND CHILL INDEX
       VSB = VISIBILITY
       HX  = HEAT INDEX
$$






000
ASUS41 KALY 291710
RWRALY

NEW YORK STATE HOURLY WEATHER ROUNDUP
NATIONAL WEATHER SERVICE ALBANY NY
100 PM EDT SUN MAY 29 2016

NOTE: "FAIR" INDICATES FEW OR NO CLOUDS BELOW 12,000 FEET WITH NO
SIGNIFICANT WEATHER AND/OR NO OBSTRUCTIONS TO VISIBILITY.

NYZ032-033-038>043-046>054-057>066-NYZ062>081-082-084-291800-
EAST


CITY           SKY/WX    TMP DP  RH WIND       PRES   REMARKS
ALBANY         PTSUNNY   86  66  51 S7        30.05F
GLENS FALLS    MOSUNNY   87  69  54 S7        30.04F HX  91
POUGHKEEPSIE   PTSUNNY   89  67  47 S9G16     30.07F HX  92
NEWBURGH       MOSUNNY   86  70  58 SW9       30.10F HX  90
MONTGOMERY     SUNNY     88  70  55 S10G18    30.07F HX  93
WHITE PLAINS   PTSUNNY   85  62  46 SE14G21   30.12F
ISLIP          CLOUDY    78  60  53 S10       30.14S
NEW YORK CITY  PTSUNNY   84  66  54 S14       30.11F
CENTRAL PARK   MOSUNNY   86  59  39 VRB7      30.14F
$$

NYZ005>009-017-018-044>046-055-056-291800-
CENTRAL


CITY           SKY/WX    TMP DP  RH WIND       PRES   REMARKS
FULTON         CLOUDY    88  68  51 W6        30.04F HX  91
SYRACUSE       CLOUDY    86  66  51 W5        30.03F
ROME           TSTM      77  67  71 S16       30.07R
ELMIRA         CLOUDY    89  64  43 SW12      30.04F HX  90
BINGHAMTON     MOSUNNY   83  65  54 SW12      30.10F
MONTICELLO     MOSUNNY   84  66  54 S10       30.14F
$$

NYZ026>034-041>043-087-291800-
NORTH


CITY           SKY/WX    TMP DP  RH WIND       PRES   REMARKS
WATERTOWN      MOSUNNY   81  66  60 W12       30.03F
FORT DRUM      NOT AVBL
MASSENA        CLOUDY    79  63  57 E3        30.03F
SARANAC LAKE   MOSUNNY   86  59  39 VRB3      30.06F
PLATTSBURGH    PTSUNNY   81  67  62 NE9       30.04F
$$

NYZ001>004-010>016-019>021-085-291800-
WEST


CITY           SKY/WX    TMP DP  RH WIND       PRES   REMARKS
NIAGARA FALLS  PTSUNNY   85  63  47 S13       30.04F
BUFFALO        PTSUNNY   82  63  52 W12       30.05F
DUNKIRK        CLOUDY    81  66  60 NW8       30.06F
WELLSVILLE     CLOUDY    76  66  71 W8        30.14F
ROCHESTER      CLOUDY    85  66  53 CALM      30.05F
PENN YAN       MOSUNNY   84  67  56 W3        30.07F
$$

             KEY
       WCI = WIND CHILL INDEX
       VSB = VISIBILITY
       HX  = HEAT INDEX
$$






    US Dept of Commerce
    National Oceanic and Atmospheric Administration
    National Weather Service
    1325 East West Highway
    Silver Spring, MD 20910
    Page Author: NWS Internet Services Team
Disclaimer
Information Quality
Credits
Glossary
Privacy Policy
Freedom of Information Act (FOIA)
About Us
Career Opportunities